Kosmos-2595

operational
NORAD ID: 65590 Int'l Des: 2025-206 Owner: VVKOV/IACG Country: RU
MEOCIRCULAR

关于 Kosmos-2595

正在加载描述...

实时位置

正在加载3D地球...

即将过境

高度历史

Altitude vs Time

uPlot chart will show altitude changes over time

两行轨道根数

1 65590U 25206B 25341.11114486 -.00000051 00000-0 00000-0 0 9998
2 65590 64.7475 321.6695 0014010 305.1353 94.5445 2.13100202 1821
Epoch: Dec 7, 2025 • Age: 17 hours

当前状态

高度 19141.4 km
速度 3.95 km/s
星下点 -26.55°S, 149.72°E
发射日期 Sep 13, 2025
运行时间 0.2 years
类型 other

技术详情

分类 Payload
质量 974.00 kg
干质量 800.00 kg
总质量 974.00 kg
长度 2.00 m
直径 1.00 m
跨度 5.00 m
形状 Box + 2 Pan
制造商 RESH
平台类型 Ekspress-1000
阶段状态 In Orbit
所有者/国家 VVKOV/IACG/RU

大型星座

Loading constellations...